Regional Weather Roundup
Issued by NWS

Home | Current Version | Previous Version | Text Only | Print | Product List | Glossary On
Versions: 1 2 3 4 5 6 7 8 9 10 11 12 13 14 15 16 17 18 19 20 21 22 23 24 25 26 27 28 29 30 31
000
ASUS45 KGTF 190510
RWRMT
MONTANA HOURLY WEATHER ROUNDUP
NATIONAL WEATHER SERVICE GREAT FALLS MT
1100 PM MDT SAT APR 18 2015

NOTE: "FAIR" INDICATES FEW OR NO CLOUDS BELOW 12000 FEET WITH NO
SIGNIFICANT WEATHER AND/OR OBSTRUCTIONS TO VISIBILITY.

MTZ001>007-043-190600-
WEST OF THE DIVIDE

CITY           SKY/WX    TMP DP  RH WIND       PRES   REMARKS
KALISPELL      CLEAR     48  28  46 N15       30.14R
MISSOULA       CLEAR     50  27  40 E18       30.16R
BUTTE          PTCLDY    36  24  62 NW3       30.22R
DEER LODGE       N/A     36  25  64 NW10      30.29R WCI  28
EUREKA           N/A     46  25  42 CALM      30.16R
HAMILTON         N/A     50  25  37 SE5       30.15R
LIBBY            N/A     45  27  49 SE3       30.16R
$$

MTZ008-052>055-190600-
SOUTHWEST MONTANA

CITY           SKY/WX    TMP DP  RH WIND       PRES   REMARKS
BOZEMAN        CLEAR     35  24  64 NE3       30.24R
DILLON         CLEAR     37  26  64 NE17      30.18R WCI  27
$$

MTZ009-010-012-014-046-048-049-054-190600-
EAST SLOPES AND CENTRAL MONTANA

CITY           SKY/WX    TMP DP  RH WIND       PRES   REMARKS
CUT BANK       CLEAR     30  23  75 N10       30.27S WCI  21
GREAT FALLS    CLOUDY    39  29  67 N6        30.27S
MALMSTROM AFB  MOCLDY    40  28  63 NW5       30.28R
HELENA         PTCLDY    38  27  64 W3        30.27S
$$

MTZ011-013-016-021-045-047-050-051-190600-
NORTH CENTRAL MONTANA

CITY           SKY/WX    TMP DP  RH WIND       PRES   REMARKS
HAVRE          CLEAR     31  20  63 W7        30.25R WCI  24
LEWISTOWN      CLOUDY    34  29  82 W10       30.24S WCI  26
FORT BENTON      N/A     41  25  52 CALM      30.28S
$$

MTZ017>020-022>042-056>058-061-062-190600-
EASTERN PLAINS

CITY           SKY/WX    TMP DP  RH WIND       PRES   REMARKS
BAKER          PTCLDY    43  25  49 NW17G23   30.07R
BILLINGS       PTCLDY    40  27  59 NW13      30.24R
GLASGOW        CLEAR     39  20  46 NW13      30.13S WCI  31
JORDAN           N/A     44  18  35 N14       30.16S
LIVINGSTON     PTCLDY    36  25  64 NE6       30.24F WCI  31
MILES CITY     CLEAR     39  21  48 NW12      30.14R WCI  32
SIDNEY         PTCLDY    39  25  56 W6        30.06S
WOLF POINT     CLEAR     39  22  50 NW12      30.11S WCI  32
BIG TIMBER       N/A     37  25  60 CALM      30.27S
FORSYTH          N/A     46  21  36 W10G16    30.18R
PLENTYWOOD       N/A     36  25  64 NW8       30.04F WCI  29
POPLAR           N/A     39  23  52 NW12      30.09S WCI  32
$$

REGIONAL REPORTS...DAKOTAS

CITY           SKY/WX    TMP DP  RH WIND       PRES   REMARKS
WILLISTON      MOCLDY    43  28  55 NW13      30.03S
MINOT          CLOUDY    46  37  71 NW18      29.92F
DICKINSON      CLOUDY    46  34  62 NW16      29.98R
BEACH          CLOUDY    41  25  52 NW10      30.07R
CROSBY         FAIR      39  28  65 W13       30.00F WCI  32
WATFORD CITY   FAIR      43  27  52 NW9       30.01S
BISMARCK       LGT RAIN  48  45  89 NW20G33   29.91S
GRAND FORKS    CLOUDY    57  31  37 SE6       29.80F
FARGO          CLOUDY    61  40  45 S18       29.81S
BUFFALO SD       N/A     45  33  63 NW18      29.96R
RAPID CITY     LGT RAIN  45  42  89 N28G38    29.97R
$$

REGIONAL REPORTS...WYOMING/IDAHO/WASHINGTON

CITY           SKY/WX    TMP DP  RH WIND       PRES   REMARKS
GILLETTE       MOCLDY    40  30  67 NW18G29   30.12R
SHERIDAN       PTCLDY    37  29  72 W12       30.21S WCI  29
BUFFALO WY     PTCLDY    38  29  70 NW25G35   30.17S WCI  27
CODY           CLOUDY    37  30  75 NW13      30.25S WCI  29
YELLOWSTONE LA   N/A     32  18  56 VRB3      30.21S
IDAHO FALLS    CLEAR     50  29  44 NE15      30.09R
SALMON         CLEAR     50  21  32 N7        30.11R
BOISE          CLEAR     58  23  26 W10       30.06R
SPOKANE        CLEAR     48  29  47 W8        30.16S
$$

REGIONAL REPORTS...ALBERTA

CITY           SKY/WX    TMP DP  RH WIND       PRES   REMARKS
EDMONTON       CLEAR     39  18  41 NW6       30.26S
CALGARY        PTCLDY    34  18  51 NW3       30.28S
LETHBRIDGE     CLEAR     37  21  52 CALM      30.28S
MEDICINE HAT   CLEAR     39  21  48 NW8       30.24F
$$

REGIONAL REPORTS...SASKATCHEWAN

CITY           SKY/WX    TMP DP  RH WIND       PRES   REMARKS
SWIFT CURRENT  MOCLDY    39  28  65 NW21G26   30.12R WCI  29
REGINA         MOCLDY    43  32  65 W13       30.00S
SASKATOON      MOCLDY    41  34  75 N18G28    30.07R
$$



USA.gov is the U.S. government's official web portal to all federal, state and local government web resources and services.